sat.trackr.live / text

‹ back to catalog

STARLINK-1296

NORAD 45412 · 2020-019BE

PAYLOAD ACTIVE UNKNOWN

§ Identity

Operator
Country
US
Launch date
2020-03-18
Launch site
AFETR
Launch vehicle
Mass (kg)
RCS (m²)

Purposes: comms

External: N2YO · Heavens-Above · Gunter

§ Orbital elements

Epoch: 2026-09-03T17:13:50.689056Z

Period
93.15 min
Inclination
53.1528°
Eccentricity
0.0001438
Mean motion
15.45847968 rev/d
Perigee alt
427.9 km
Apogee alt
429.9 km
Semi-major
6,807.0 km
B*
4.6711e-4
RAAN
12.0429°
Arg perigee
358.8015°
Mean anomaly
1.2989°
Rev number
35,737

§ Raw data

STARLINK-12961 45412U 20019BE  26246.71794779  .00022671  00000+0  46711-3 0  99982 45412  53.1528  12.0429 0001438 358.8015   1.2989 15.45847968357377

JSON: /api/v1/satellites/45412 · /tle

For live sub-satellite position, see the globe view (requires WebGL).

§ Visibility from observer

Set your observer location to see the next 7 days of passes ≥ 10°. The values pass through the URL so the page stays shareable.

No JS? Fill the form by hand. The geolocation button needs JavaScript.